QPF
0.00 0.00 0.00 0.00 0.00 0.00 0.00 0.00 0.00 0.00 0.00 0.00 0.00 0.00 0.00 0.00 0.00 0.00 0.00 0.00 0.01 0.01 0.01 0.02 0.02 0.01 0.00 0.00 0.01 0.02 0.02 0.02 0.02 0.02 0.03 0.04 0.04 0.04 0.05 0.07 0.07 0.07 0.07 0.08
0.00 0.00 0.00 0.00 0.00 0.00 0.00 0.00 0.00 0.00 0.01 0.01 0.00 0.00 0.00 0.00 0.01 0.01 0.01 0.00 0.01 0.01 0.01 0.01 0.01 0.01 0.01 0.01 0.01 0.01 0.02 0.02 0.02 0.03 0.03 0.04 0.05 0.04 0.04 0.04 0.05 0.06 0.07 0.08
0.01 0.01 0.00 0.01 0.00 0.00 0.00 0.00 0.00 0.00 0.00 0.02 0.02 0.00 0.00 0.00 0.00 0.00 0.01 0.00 0.01 0.01 0.01 0.01 0.01 0.02 0.02 0.01 0.01 0.01 0.01 0.01 0.02 0.04 0.04 0.04 0.04 0.04 0.03 0.03 0.05 0.06 0.06 0.08
0.02 0.02 0.01 0.00 0.00 0.00 0.00 0.00 0.00 0.00 0.00 0.01 0.01 0.00 0.00 0.00 0.00 0.01 0.01 0.01 0.01 0.01 0.01 0.01 0.01 0.02 0.01 0.01 0.01 0.01 0.01 0.01 0.01 0.03 0.03 0.03 0.03 0.03 0.03 0.03 0.05 0.07 0.07 0.08
0.01 0.01 0.01 0.00 0.00 0.01 0.00 0.00 0.00 0.00 0.00 0.00 0.00 0.00 0.01 0.00 0.00 0.01 0.00 0.02 0.03 0.02 0.02 0.02 0.03 0.02 0.01 0.01 0.01 0.01 0.01 0.01 0.01 0.03 0.03 0.03 0.03 0.03 0.03 0.02 0.03 0.05 0.06 0.06
0.01 0.01 0.01 0.01 0.01 0.01 0.01 0.01 0.00 0.00 0.00 0.00 0.00 0.00 0.01 0.00 0.01 0.01 0.01 0.02 0.03 0.02 0.02 0.02 0.02 0.01 0.01 0.01 0.01 0.01 0.02 0.02 0.02 0.02 0.02 0.02 0.03 0.03 0.04 0.04 0.04 0.06 0.05 0.04
0.01 0.01 0.01 0.01 0.01 0.02 0.04 0.02 0.01 0.01 0.00 0.00 0.01 0.01 0.02 0.01 0.03 0.03 0.03 0.02 0.01 0.01 0.02 0.01 0.01 0.01 0.02 0.02 0.02 0.02 0.02 0.03 0.03 0.03 0.03 0.03 0.04 0.04 0.04 0.04 0.04 0.04 0.03 0.03
0.01 0.01 0.02 0.02 0.01 0.04 0.07 0.02 0.01 0.02 0.03 0.04 0.03 0.01 0.02 0.02 0.04 0.05 0.04 0.03 0.02 0.02 0.02 0.01 0.01 0.01 0.02 0.02 0.02 0.02 0.03 0.04 0.06 0.09 0.08 0.06 0.05 0.05 0.05 0.04 0.03 0.02 0.03 0.03
0.02 0.03 0.04 0.04 0.03 0.03 0.03 0.02 0.02 0.06 0.09 0.05 0.03 0.02 0.01 0.03 0.05 0.06 0.07 0.03 0.02 0.02 0.02 0.02 0.02 0.02 0.02 0.02 0.02 0.02 0.03 0.04 0.06 0.06 0.07 0.06 0.05 0.04 0.03 0.02 0.03 0.03 0.03 0.03
0.03 0.05 0.05 0.05 0.03 0.03 0.02 0.02 0.03 0.05 0.08 0.06 0.02 0.02 0.02 0.05 0.07 0.08 0.12 0.06 0.03 0.02 0.02 0.02 0.02 0.02 0.02 0.02 0.03 0.03 0.03 0.03 0.04 0.04 0.05 0.05 0.06 0.05 0.04 0.02 0.02 0.02 0.02 0.03
0.07 0.09 0.13 0.09 0.05 0.03 0.02 0.02 0.03 0.05 0.04 0.03 0.02 0.02 0.03 0.07 0.05 0.05 0.10 0.09 0.04 0.04 0.03 0.02 0.02 0.02 0.02 0.02 0.02 0.03 0.03 0.03 0.03 0.04 0.05 0.05 0.06 0.06 0.06 0.05 0.05 0.04 0.03 0.03
0.10 0.08 0.12 0.12 0.08 0.03 0.02 0.02 0.02 0.02 0.03 0.03 0.03 0.03 0.04 0.04 0.02 0.03 0.07 0.09 0.05 0.04 0.04 0.03 0.02 0.02 0.01 0.01 0.01 0.01 0.01 0.02 0.02 0.03 0.03 0.04 0.04 0.03 0.04 0.05 0.05 0.04 0.04 0.05
0.09 0.05 0.07 0.09 0.07 0.04 0.05 0.04 0.02 0.01 0.03 0.04 0.04 0.03 0.02 0.02 0.04 0.05 0.05 0.05 0.05 0.04 0.03 0.03 0.03 0.03 0.02 0.01 0.01 0.01 0.01 0.02 0.02 0.03 0.03 0.03 0.03 0.02 0.02 0.03 0.04 0.03 0.03 0.03
0.12 0.11 0.06 0.06 0.06 0.04 0.04 0.04 0.03 0.03 0.03 0.04 0.03 0.02 0.02 0.03 0.06 0.06 0.08 0.04 0.04 0.04 0.03 0.03 0.02 0.03 0.02 0.01 0.01 0.01 0.01 0.02 0.02 0.03 0.05 0.06 0.07 0.06 0.05 0.04 0.04 0.03 0.02 0.02
0.08 0.09 0.07 0.04 0.03 0.04 0.04 0.05 0.07 0.05 0.03 0.03 0.03 0.02 0.02 0.03 0.07 0.06 0.05 0.03 0.03 0.03 0.03 0.03 0.02 0.02 0.02 0.01 0.01 0.01 0.01 0.02 0.02 0.03 0.05 0.06 0.05 0.05 0.04 0.03 0.02 0.01 0.01 0.00
0.03 0.05 0.05 0.03 0.04 0.05 0.06 0.09 0.10 0.09 0.05 0.04 0.04 0.04 0.03 0.03 0.05 0.05 0.05 0.04 0.04 0.04 0.04 0.04 0.04 0.03 0.02 0.01 0.01 0.01 0.02 0.02 0.03 0.03 0.02 0.02 0.02 0.02 0.01 0.01 0.00 0.01 0.01 0.01
0.03 0.03 0.04 0.06 0.06 0.06 0.07 0.12 0.13 0.12 0.10 0.06 0.04 0.05 0.04 0.04 0.03 0.04 0.06 0.06 0.05 0.05 0.05 0.05 0.05 0.04 0.04 0.03 0.03 0.03 0.02 0.02 0.03 0.03 0.01 0.01 0.01 0.01 0.01 0.01 0.01 0.02 0.02 0.02
0.03 0.04 0.03 0.06 0.08 0.07 0.05 0.09 0.13 0.10 0.09 0.06 0.04 0.05 0.05 0.05 0.05 0.04 0.05 0.06 0.05 0.06 0.06 0.06 0.05 0.04 0.04 0.05 0.05 0.04 0.02 0.01 0.01 0.02 0.03 0.01 0.01 0.02 0.01 0.01 0.01 0.01 0.02 0.01
0.02 0.03 0.03 0.03 0.05 0.04 0.04 0.05 0.05 0.05 0.06 0.05 0.04 0.04 0.05 0.07 0.08 0.06 0.05 0.05 0.04 0.04 0.04 0.05 0.05 0.06 0.05 0.04 0.04 0.03 0.02 0.01 0.01 0.01 0.02 0.01 0.01 0.01 0.01 0.01 0.01 0.01 0.01 0.01
0.02 0.02 0.03 0.03 0.04 0.05 0.04 0.04 0.04 0.04 0.06 0.06 0.05 0.05 0.05 0.07 0.08 0.08 0.05 0.04 0.03 0.03 0.03 0.03 0.03 0.03 0.03 0.03 0.03 0.03 0.03 0.02 0.02 0.01 0.01 0.01 0.00 0.00 0.00 0.00 0.00 0.01 0.01 0.01
0.03 0.02 0.02 0.02 0.03 0.04 0.04 0.03 0.04 0.04 0.04 0.05 0.05 0.06 0.08 0.09 0.10 0.09 0.07 0.05 0.04 0.04 0.03 0.03 0.03 0.01 0.01 0.02 0.02 0.01 0.01 0.02 0.01 0.01 0.01 0.00 0.00 0.00 0.00 0.01 0.01 0.01 0.01 0.01
0.03 0.03 0.02 0.01 0.02 0.03 0.04 0.03 0.03 0.02 0.04 0.07 0.06 0.06 0.08 0.09 0.10 0.09 0.07 0.05 0.04 0.04 0.03 0.03 0.03 0.02 0.02 0.02 0.01 0.00 0.00 0.00 0.00 0.00 0.00 0.00 0.00 0.01 0.01 0.01 0.01 0.01 0.01 0.01
0.03 0.02 0.02 0.02 0.03 0.03 0.03 0.04 0.04 0.03 0.04 0.06 0.08 0.08 0.09 0.08 0.08 0.07 0.05 0.05 0.04 0.03 0.02 0.02 0.02 0.02 0.02 0.01 0.01 0.00 0.00 0.00 0.00 0.00 0.00 0.00 0.00 0.00 0.00 0.00 0.00 0.01 0.01 0.01
0.03 0.03 0.03 0.02 0.03 0.03 0.03 0.04 0.04 0.04 0.04 0.04 0.08 0.10 0.09 0.07 0.05 0.04 0.03 0.02 0.02 0.02 0.01 0.01 0.01 0.01 0.01 0.01 0.00 0.00 0.00 0.00 0.00 0.00 0.00 0.00 0.00 0.00 0.00 0.00 0.00 0.00 0.00 0.00
0.04 0.04 0.04 0.04 0.03 0.03 0.03 0.04 0.04 0.04 0.04 0.04 0.05 0.06 0.07 0.06 0.05 0.03 0.02 0.01 0.01 0.01 0.02 0.02 0.02 0.01 0.01 0.00 0.00 0.00 0.00 0.00 0.00 0.00 0.00 0.00 0.00 0.00 0.00 0.00 0.00 0.00 0.00 0.00
0.04 0.05 0.05 0.04 0.04 0.04 0.04 0.05 0.05 0.04 0.04 0.05 0.05 0.04 0.04 0.04 0.04 0.04 0.02 0.01 0.02 0.02 0.01 0.01 0.01 0.01 0.01 0.00 0.00 0.00 0.00 0.01 0.01 0.01 0.01 0.00 0.00 0.00 0.01 0.01 0.01 0.00 0.00 0.00
0.05 0.05 0.05 0.04 0.04 0.04 0.05 0.06 0.06 0.05 0.05 0.04 0.03 0.03 0.03 0.04 0.05 0.05 0.02 0.02 0.01 0.01 0.01 0.01 0.01 0.01 0.00 0.00 0.01 0.01 0.01 0.01 0.01 0.01 0.01 0.01 0.01 0.01 0.01 0.01 0.00 0.00 0.00 0.00
MSLP
1008.39 1008.74 1008.97 1009.08 1009.08 1008.98 1008.80 1008.54 1008.24 1007.89 1007.51 1007.12 1006.74 1006.38 1006.05 1005.77 1005.55 1005.39 1005.29 1005.26 1005.31 1005.44 1005.66 1005.96 1006.34 1006.81 1007.34 1007.92 1008.53 1009.12 1009.69 1010.19 1010.62 1010.97 1011.24 1011.44 1011.59 1011.72 1011.85 1011.99 1012.18 1012.42 1012.71 1013.07
1008.61 1008.85 1008.91 1008.81 1008.58 1008.27 1007.91 1007.54 1007.19 1006.88 1006.61 1006.39 1006.20 1006.05 1005.91 1005.78 1005.66 1005.57 1005.49 1005.47 1005.50 1005.62 1005.83 1006.14 1006.56 1007.07 1007.65 1008.28 1008.92 1009.54 1010.12 1010.64 1011.09 1011.46 1011.77 1012.03 1012.26 1012.47 1012.69 1012.92 1013.17 1013.45 1013.76 1014.11
1008.80 1008.93 1008.85 1008.59 1008.21 1007.75 1007.28 1006.85 1006.50 1006.24 1006.07 1005.98 1005.94 1005.93 1005.90 1005.86 1005.79 1005.69 1005.60 1005.53 1005.52 1005.61 1005.81 1006.13 1006.58 1007.14 1007.78 1008.47 1009.18 1009.86 1010.49 1011.06 1011.56 1011.99 1012.37 1012.71 1013.03 1013.34 1013.65 1013.96 1014.27 1014.59 1014.92 1015.25
1008.92 1008.95 1008.77 1008.40 1007.93 1007.40 1006.90 1006.48 1006.17 1005.98 1005.92 1005.94 1006.00 1006.07 1006.10 1006.07 1005.98 1005.83 1005.67 1005.52 1005.44 1005.47 1005.64 1005.96 1006.43 1007.03 1007.73 1008.49 1009.27 1010.02 1010.72 1011.36 1011.93 1012.44 1012.91 1013.34 1013.75 1014.16 1014.56 1014.94 1015.32 1015.68 1016.02 1016.33
1008.90 1008.85 1008.59 1008.19 1007.69 1007.18 1006.72 1006.37 1006.15 1006.07 1006.10 1006.22 1006.35 1006.46 1006.50 1006.44 1006.28 1006.05 1005.79 1005.53 1005.36 1005.31 1005.43 1005.72 1006.19 1006.82 1007.56 1008.37 1009.21 1010.02 1010.79 1011.50 1012.15 1012.74 1013.28 1013.80 1014.30 1014.79 1015.27 1015.73 1016.17 1016.56 1016.92 1017.23
1008.72 1008.60 1008.31 1007.91 1007.45 1007.02 1006.67 1006.43 1006.34 1006.39 1006.53 1006.73 1006.92 1007.05 1007.07 1006.96 1006.73 1006.40 1006.02 1005.66 1005.39 1005.26 1005.31 1005.56 1006.00 1006.62 1007.37 1008.21 1009.07 1009.92 1010.74 1011.49 1012.19 1012.84 1013.46 1014.05 1014.62 1015.19 1015.73 1016.26 1016.74 1017.18 1017.56 1017.89
1008.40 1008.22 1007.93 1007.57 1007.20 1006.89 1006.68 1006.60 1006.66 1006.84 1007.10 1007.38 1007.61 1007.75 1007.75 1007.59 1007.29 1006.88 1006.41 1005.97 1005.61 1005.41 1005.39 1005.59 1005.99 1006.57 1007.29 1008.11 1008.96 1009.81 1010.63 1011.41 1012.13 1012.81 1013.47 1014.11 1014.73 1015.35 1015.95 1016.52 1017.04 1017.52 1017.94 1018.30
1007.97 1007.76 1007.49 1007.21 1006.96 1006.79 1006.74 1006.83 1007.03 1007.34 1007.70 1008.05 1008.32 1008.47 1008.45 1008.26 1007.92 1007.47 1006.96 1006.47 1006.06 1005.81 1005.74 1005.88 1006.23 1006.76 1007.42 1008.18 1008.98 1009.79 1010.58 1011.33 1012.05 1012.74 1013.40 1014.06 1014.72 1015.37 1016.00 1016.61 1017.17 1017.68 1018.14 1018.53
1007.52 1007.31 1007.10 1006.90 1006.78 1006.76 1006.86 1007.09 1007.42 1007.83 1008.26 1008.66 1008.96 1009.11 1009.10 1008.91 1008.57 1008.12 1007.61 1007.12 1006.71 1006.44 1006.35 1006.46 1006.75 1007.21 1007.80 1008.48 1009.20 1009.93 1010.66 1011.36 1012.04 1012.71 1013.38 1014.04 1014.71 1015.38 1016.03 1016.66 1017.25 1017.79 1018.28 1018.70
1007.11 1006.95 1006.81 1006.72 1006.72 1006.83 1007.06 1007.40 1007.82 1008.29 1008.76 1009.18 1009.48 1009.64 1009.64 1009.47 1009.16 1008.75 1008.30 1007.86 1007.50 1007.26 1007.18 1007.26 1007.51 1007.91 1008.41 1009.00 1009.62 1010.27 1010.92 1011.56 1012.20 1012.84 1013.49 1014.15 1014.82 1015.50 1016.18 1016.82 1017.43 1017.98 1018.48 1018.92
1006.84 1006.75 1006.70 1006.73 1006.84 1007.06 1007.37 1007.78 1008.24 1008.72 1009.19 1009.59 1009.88 1010.03 1010.04 1009.91 1009.66 1009.32 1008.95 1008.60 1008.32 1008.15 1008.10 1008.19 1008.41 1008.75 1009.19 1009.68 1010.22 1010.78 1011.35 1011.94 1012.54 1013.15 1013.80 1014.46 1015.15 1015.84 1016.53 1017.19 1017.80 1018.35 1018.85 1019.28
1006.72 1006.73 1006.79 1006.92 1007.14 1007.43 1007.80 1008.22 1008.67 1009.13 1009.55 1009.91 1010.16 1010.30 1010.31 1010.22 1010.03 1009.79 1009.52 1009.28 1009.10 1009.00 1009.00 1009.12 1009.33 1009.63 1010.00 1010.43 1010.90 1011.39 1011.91 1012.46 1013.04 1013.66 1014.31 1015.00 1015.71 1016.42 1017.12 1017.79 1018.40 1018.94 1019.40 1019.80
1006.75 1006.87 1007.04 1007.27 1007.56 1007.90 1008.29 1008.70 1009.12 1009.52 1009.88 1010.17 1010.37 1010.48 1010.50 1010.43 1010.31 1010.15 1009.99 1009.85 1009.76 1009.74 1009.80 1009.94 1010.15 1010.43 1010.76 1011.14 1011.56 1012.02 1012.51 1013.06 1013.65 1014.29 1014.98 1015.70 1016.45 1017.19 1017.91 1018.58 1019.17 1019.69 1020.11 1020.45
1006.88 1007.10 1007.37 1007.68 1008.02 1008.39 1008.78 1009.18 1009.55 1009.89 1010.18 1010.40 1010.56 1010.64 1010.65 1010.62 1010.55 1010.46 1010.38 1010.32 1010.31 1010.35 1010.45 1010.60 1010.81 1011.07 1011.38 1011.73 1012.13 1012.58 1013.08 1013.65 1014.28 1014.97 1015.71 1016.48 1017.27 1018.05 1018.78 1019.45 1020.03 1020.50 1020.87 1021.14
1007.06 1007.36 1007.69 1008.05 1008.43 1008.82 1009.21 1009.58 1009.92 1010.21 1010.45 1010.63 1010.76 1010.82 1010.85 1010.84 1010.81 1010.77 1010.75 1010.74 1010.78 1010.85 1010.96 1011.12 1011.31 1011.56 1011.84 1012.18 1012.58 1013.04 1013.58 1014.18 1014.86 1015.61 1016.41 1017.24 1018.07 1018.88 1019.62 1020.28 1020.83 1021.26 1021.56 1021.76
1007.22 1007.55 1007.92 1008.30 1008.70 1009.11 1009.50 1009.86 1010.19 1010.47 1010.70 1010.87 1011.00 1011.08 1011.13 1011.14 1011.15 1011.15 1011.16 1011.18 1011.22 1011.29 1011.39 1011.53 1011.70 1011.92 1012.20 1012.53 1012.93 1013.42 1013.99 1014.64 1015.38 1016.18 1017.03 1017.90 1018.76 1019.57 1020.31 1020.94 1021.45 1021.83 1022.07 1022.19
1007.34 1007.66 1008.02 1008.41 1008.81 1009.22 1009.62 1010.00 1010.35 1010.65 1010.91 1011.13 1011.30 1011.42 1011.51 1011.57 1011.62 1011.64 1011.66 1011.69 1011.72 1011.76 1011.83 1011.93 1012.07 1012.26 1012.51 1012.83 1013.25 1013.75 1014.35 1015.04 1015.81 1016.65 1017.52 1018.41 1019.26 1020.05 1020.76 1021.35 1021.81 1022.13 1022.31 1022.37
1007.41 1007.69 1008.01 1008.38 1008.77 1009.18 1009.60 1010.01 1010.40 1010.77 1011.10 1011.39 1011.64 1011.84 1012.00 1012.12 1012.20 1012.26 1012.29 1012.30 1012.30 1012.31 1012.34 1012.39 1012.48 1012.64 1012.86 1013.18 1013.59 1014.11 1014.72 1015.42 1016.20 1017.04 1017.90 1018.75 1019.56 1020.30 1020.95 1021.47 1021.86 1022.11 1022.24 1022.26
1007.48 1007.69 1007.96 1008.28 1008.65 1009.05 1009.49 1009.94 1010.39 1010.83 1011.26 1011.65 1012.00 1012.30 1012.54 1012.74 1012.87 1012.96 1013.00 1013.00 1012.98 1012.96 1012.94 1012.95 1013.01 1013.13 1013.33 1013.63 1014.03 1014.54 1015.14 1015.82 1016.57 1017.37 1018.17 1018.95 1019.68 1020.33 1020.88 1021.31 1021.61 1021.80 1021.88 1021.87
1007.61 1007.74 1007.94 1008.21 1008.53 1008.92 1009.36 1009.84 1010.35 1010.87 1011.38 1011.87 1012.32 1012.72 1013.06 1013.33 1013.53 1013.66 1013.72 1013.73 1013.70 1013.66 1013.62 1013.60 1013.64 1013.74 1013.92 1014.20 1014.58 1015.05 1015.62 1016.25 1016.94 1017.65 1018.35 1019.02 1019.64 1020.17 1020.60 1020.93 1021.15 1021.27 1021.31 1021.28
1007.84 1007.91 1008.04 1008.24 1008.52 1008.87 1009.29 1009.78 1010.31 1010.88 1011.45 1012.02 1012.56 1013.05 1013.47 1013.81 1014.08 1014.25 1014.35 1014.39 1014.38 1014.34 1014.30 1014.28 1014.31 1014.40 1014.57 1014.83 1015.19 1015.62 1016.13 1016.69 1017.28 1017.88 1018.46 1019.00 1019.47 1019.87 1020.18 1020.40 1020.54 1020.60 1020.61 1020.58
1008.20 1008.21 1008.28 1008.42 1008.63 1008.93 1009.31 1009.77 1010.29 1010.86 1011.47 1012.08 1012.67 1013.21 1013.69 1014.10 1014.42 1014.65 1014.80 1014.88 1014.90 1014.90 1014.88 1014.89 1014.94 1015.04 1015.21 1015.46 1015.78 1016.17 1016.60 1017.08 1017.56 1018.04 1018.48 1018.88 1019.21 1019.48 1019.68 1019.80 1019.87 1019.90 1019.89 1019.87
1008.64 1008.62 1008.64 1008.71 1008.86 1009.08 1009.40 1009.80 1010.27 1010.81 1011.40 1012.00 1012.60 1013.17 1013.69 1014.13 1014.50 1014.78 1014.99 1015.12 1015.20 1015.25 1015.29 1015.34 1015.43 1015.55 1015.73 1015.97 1016.27 1016.60 1016.97 1017.35 1017.73 1018.08 1018.40 1018.67 1018.88 1019.04 1019.14 1019.21 1019.23 1019.24 1019.25 1019.26
1009.09 1009.06 1009.04 1009.06 1009.13 1009.28 1009.51 1009.83 1010.23 1010.70 1011.23 1011.79 1012.37 1012.93 1013.45 1013.92 1014.32 1014.64 1014.90 1015.10 1015.25 1015.37 1015.47 1015.58 1015.71 1015.87 1016.07 1016.31 1016.57 1016.86 1017.17 1017.46 1017.74 1017.99 1018.20 1018.37 1018.50 1018.58 1018.63 1018.67 1018.69 1018.71 1018.75 1018.81
1009.46 1009.42 1009.38 1009.35 1009.36 1009.43 1009.58 1009.81 1010.12 1010.51 1010.97 1011.47 1012.00 1012.53 1013.03 1013.50 1013.92 1014.29 1014.60 1014.85 1015.07 1015.25 1015.42 1015.59 1015.77 1015.97 1016.18 1016.42 1016.66 1016.92 1017.16 1017.39 1017.60 1017.77 1017.91 1018.01 1018.09 1018.14 1018.18 1018.23 1018.27 1018.34 1018.44 1018.56
1009.64 1009.60 1009.54 1009.49 1009.45 1009.47 1009.54 1009.70 1009.94 1010.26 1010.64 1011.08 1011.55 1012.04 1012.53 1012.99 1013.42 1013.81 1014.16 1014.46 1014.73 1014.98 1015.21 1015.43 1015.65 1015.87 1016.10 1016.33 1016.56 1016.77 1016.98 1017.16 1017.32 1017.45 1017.55 1017.63 1017.70 1017.77 1017.84 1017.93 1018.03 1018.17 1018.33 1018.53
1009.56 1009.53 1009.46 1009.40 1009.34 1009.33 1009.38 1009.49 1009.69 1009.96 1010.30 1010.69 1011.13 1011.59 1012.05 1012.51 1012.94 1013.35 1013.72 1014.06 1014.37 1014.65 1014.91 1015.17 1015.41 1015.65 1015.88 1016.10 1016.31 1016.51 1016.69 1016.84 1016.98 1017.10 1017.20 1017.29 1017.39 1017.50 1017.63 1017.79 1017.97 1018.18 1018.42 1018.69
Thickness
5790 5809 5813 5805 5806 5814 5812 5815 5811 5820 5825 5833 5840 5843 5843 5843 5841 5838 5834 5832 5830 5826 5823 5820 5817 5812 5809 5805 5801 5797 5791 5785 5781 5777 5773 5769 5766 5763 5760 5756 5754 5751 5748 5746
5773 5794 5803 5802 5806 5810 5813 5818 5820 5823 5826 5846 5847 5846 5839 5836 5834 5831 5827 5825 5823 5821 5817 5814 5811 5807 5803 5799 5796 5792 5786 5780 5777 5773 5768 5764 5760 5757 5753 5750 5747 5744 5741 5738
5757 5779 5784 5778 5800 5806 5810 5819 5821 5814 5823 5838 5832 5833 5831 5830 5829 5827 5825 5822 5818 5815 5813 5810 5807 5804 5798 5795 5791 5786 5780 5776 5772 5768 5763 5759 5755 5750 5746 5743 5739 5736 5732 5729
5751 5759 5743 5784 5819 5818 5812 5818 5826 5827 5830 5833 5830 5831 5833 5832 5827 5824 5822 5816 5811 5812 5809 5806 5804 5800 5796 5791 5786 5780 5775 5771 5767 5762 5757 5753 5748 5743 5740 5737 5733 5728 5725 5721
5742 5744 5755 5784 5806 5810 5803 5802 5823 5823 5825 5828 5831 5824 5821 5828 5828 5823 5820 5814 5811 5809 5806 5802 5798 5795 5790 5784 5779 5774 5769 5765 5761 5756 5751 5747 5742 5737 5734 5730 5726 5722 5718 5714
5735 5734 5739 5772 5804 5817 5804 5785 5814 5819 5815 5817 5817 5801 5801 5818 5820 5817 5814 5810 5806 5804 5800 5795 5792 5789 5783 5777 5772 5767 5763 5760 5756 5751 5746 5741 5736 5732 5729 5725 5720 5715 5711 5707
5729 5734 5752 5787 5804 5803 5769 5776 5807 5812 5811 5810 5806 5807 5808 5812 5809 5805 5803 5801 5800 5796 5791 5787 5785 5781 5774 5769 5764 5762 5759 5754 5749 5745 5740 5735 5731 5726 5722 5718 5713 5709 5704 5700
5728 5728 5742 5787 5791 5779 5779 5798 5804 5805 5806 5802 5802 5803 5801 5799 5796 5795 5792 5789 5789 5785 5780 5778 5776 5771 5765 5760 5758 5755 5751 5746 5741 5737 5734 5730 5725 5720 5716 5711 5706 5702 5698 5693
5739 5742 5763 5778 5776 5783 5791 5789 5794 5797 5798 5796 5792 5790 5789 5787 5784 5783 5782 5780 5780 5776 5771 5768 5766 5762 5756 5752 5750 5746 5741 5736 5733 5730 5726 5722 5718 5714 5710 5705 5702 5698 5693 5688
5739 5747 5758 5766 5772 5779 5783 5783 5788 5792 5792 5790 5785 5782 5779 5776 5774 5772 5771 5771 5770 5767 5762 5758 5757 5754 5750 5747 5743 5738 5732 5728 5725 5721 5717 5713 5709 5706 5703 5699 5695 5692 5687 5682
5731 5741 5748 5754 5760 5767 5773 5778 5780 5785 5787 5784 5780 5775 5772 5768 5765 5763 5763 5762 5761 5757 5754 5751 5749 5745 5743 5739 5735 5729 5724 5721 5717 5713 5708 5701 5695 5690 5689 5683 5684 5682 5679 5675
5717 5732 5736 5740 5753 5762 5763 5765 5770 5774 5774 5774 5773 5767 5764 5759 5757 5755 5754 5753 5751 5748 5745 5743 5741 5737 5734 5732 5728 5722 5717 5713 5710 5706 5700 5694 5687 5679 5674 5673 5671 5670 5667 5664
5723 5732 5738 5742 5750 5756 5757 5759 5762 5764 5764 5762 5762 5759 5756 5751 5749 5747 5746 5745 5743 5740 5738 5735 5732 5729 5726 5724 5721 5716 5712 5708 5705 5700 5694 5689 5684 5678 5671 5663 5660 5658 5656 5653
5721 5726 5726 5733 5738 5745 5750 5753 5756 5756 5755 5754 5751 5749 5746 5743 5740 5738 5736 5736 5735 5732 5729 5727 5724 5721 5719 5717 5713 5709 5706 5701 5698 5693 5689 5685 5680 5676 5671 5665 5658 5651 5645 5642
5714 5720 5722 5729 5734 5737 5741 5743 5741 5740 5741 5740 5740 5738 5735 5733 5730 5729 5729 5729 5726 5723 5721 5718 5715 5713 5712 5709 5706 5702 5698 5695 5691 5687 5683 5680 5676 5672 5667 5661 5655 5648 5642 5636
5708 5714 5717 5720 5723 5725 5727 5729 5726 5725 5727 5728 5728 5727 5726 5725 5723 5722 5721 5720 5717 5714 5711 5709 5707 5705 5704 5702 5698 5694 5691 5687 5684 5681 5678 5674 5670 5666 5661 5655 5650 5645 5639 5634
5696 5699 5704 5708 5712 5714 5715 5717 5718 5717 5717 5717 5717 5719 5718 5715 5713 5711 5711 5710 5709 5706 5704 5702 5700 5699 5697 5694 5691 5688 5683 5679 5676 5674 5671 5668 5663 5659 5655 5650 5645 5640 5634 5629
5694 5697 5700 5703 5705 5706 5707 5709 5709 5708 5706 5707 5709 5709 5707 5704 5702 5701 5701 5700 5698 5696 5695 5694 5693 5691 5689 5686 5684 5680 5676 5672 5669 5666 5663 5659 5655 5651 5648 5643 5639 5633 5627 5622
5688 5691 5694 5696 5699 5700 5699 5700 5700 5700 5700 5700 5700 5699 5697 5696 5694 5693 5691 5689 5688 5685 5685 5685 5682 5682 5680 5677 5675 5672 5669 5665 5661 5658 5654 5649 5646 5644 5639 5635 5631 5626 5621 5616
5680 5684 5686 5688 5690 5691 5691 5692 5693 5692 5692 5692 5690 5688 5687 5687 5686 5685 5682 5680 5680 5679 5677 5675 5674 5673 5671 5669 5666 5665 5662 5658 5654 5650 5646 5642 5639 5635 5631 5627 5623 5619 5614 5609
5671 5674 5676 5678 5680 5682 5683 5683 5683 5682 5682 5681 5679 5678 5677 5676 5677 5675 5673 5670 5670 5669 5667 5665 5666 5664 5662 5659 5657 5656 5653 5649 5646 5641 5637 5633 5630 5626 5623 5619 5615 5610 5606 5601
5661 5664 5666 5668 5670 5671 5673 5674 5673 5673 5672 5672 5672 5671 5669 5667 5666 5665 5664 5663 5661 5659 5659 5658 5658 5655 5652 5650 5649 5648 5645 5642 5637 5633 5630 5626 5622 5619 5615 5612 5607 5603 5599 5594
5651 5655 5657 5659 5660 5661 5663 5664 5664 5664 5664 5663 5662 5661 5660 5659 5660 5658 5656 5655 5654 5651 5653 5651 5648 5645 5642 5642 5641 5640 5637 5633 5630 5626 5623 5619 5615 5612 5608 5604 5600 5596 5591 5587
5642 5645 5647 5650 5652 5652 5651 5653 5654 5655 5656 5655 5655 5655 5654 5653 5652 5653 5651 5647 5646 5644 5645 5641 5638 5636 5634 5635 5634 5631 5628 5625 5622 5620 5616 5613 5609 5606 5602 5597 5593 5588 5584 5579
5634 5637 5639 5641 5641 5643 5644 5645 5645 5646 5646 5646 5647 5647 5647 5647 5646 5645 5644 5641 5637 5636 5635 5631 5629 5628 5628 5628 5627 5624 5622 5619 5616 5613 5610 5606 5603 5599 5594 5589 5584 5580 5576 5572
5626 5629 5631 5634 5636 5637 5639 5640 5640 5639 5639 5638 5638 5638 5639 5640 5639 5637 5635 5632 5631 5629 5628 5625 5623 5620 5621 5620 5618 5616 5614 5611 5608 5605 5602 5599 5595 5591 5586 5581 5576 5572 5568 5564
5619 5621 5623 5625 5628 5631 5633 5633 5633 5633 5633 5633 5632 5632 5632 5632 5631 5629 5628 5625 5623 5622 5621 5619 5617 5615 5613 5612 5611 5609 5607 5604 5601 5598 5594 5591 5587 5582 5578 5573 5569 5565 5561 5557